Regional Weather Roundup
Issued by NWS

Home | Current Version | Previous Version | Graphics & Text | Print | Product List | Glossary On
Versions: 1 2 3 4 5 6 7 8 9 10 11 12 13 14 15 16 17 18 19 20 21 22 23 24 25 26 27 28 29 30 31 32 33 34 35 36 37 38 39 40 41 42 43 44 45 46 47 48 49 50
966
ASUS43 KDMX 100401
RWRIA

WEATHER ROUNDUP FOR IOWA
NATIONAL WEATHER SERVICE DES MOINES IA
1000 PM CST FRI DEC 09 2016

NOTE: "FAIR" INDICATES FEW OR NO CLOUDS BELOW 12,000 FEET WITH NO
SIGNIFICANT WEATHER AND/OR OBSTRUCTIONS TO VISIBILITY.

* - THESE STATIONS ARE NOT NWS STATIONS...THUS NOT UNDER NWS
QUALITY CONTROL.  THEY ALSO DO NOT REPORT WEATHER SUCH
AS PRECIPITATION OR FOG.

IAZ001>003-012>014-020>022-031>034-043>046-100500-
   NORTHWEST IOWA

CITY           SKY/WX    TMP DP  RH WIND       PRES   REMARKS
CARROLL *      CLOUDY    19  14  79 CALM      30.50S
CHEROKEE *     LGT SNOW  17  12  82 CALM      30.49F
DENISON *      CLOUDY    19  12  73 CALM      30.47F
LE MARS *      CLOUDY    16  10  79 CALM      30.50F
ORANGE CITY *  LGT SNOW  16  12  86 CALM      30.47F
SHELDON *      LGT SNOW  14  14 100 CALM      30.46F
SIOUX CITY     FLURRIES  20  10  65 E3        30.50F
SPENCER        LGT SNOW  16  11  80 W14       30.49R WCI   2
STORM LAKE *   FLURRIES  16  10  79 W5        30.48S WCI   9
$$

IAZ055>058-069>071-079>083-090>094-100500-
   SOUTHWEST IOWA

CITY           SKY/WX    TMP DP  RH WIND       PRES   REMARKS
ATLANTIC *     CLOUDY    21  14  73 S6        30.50S WCI  14
AUDUBON *      CLOUDY    21  12  68 S3        30.49S
CLARINDA *     CLOUDY    23  14  68 S3        30.53S
COUNCIL BLFS * CLOUDY    21  14  73 SE6       30.48F WCI  14
CRESTON *      CLOUDY    21  12  68 CALM      30.51R
HARLAN  *      CLOUDY    21  14  73 S5        30.53F WCI  15
LAMONI         CLOUDY    22  12  65 CALM      30.50F
RED OAK *      CLOUDY    23  14  68 CALM      30.51S
SHENANDOAH *   CLOUDY    23  16  74 SE5       30.51F WCI  17
$$

IAZ047>049-059>061-072>074-084-100500-
   CENTRAL IOWA

CITY           SKY/WX    TMP DP  RH WIND       PRES   REMARKS
AMES           CLOUDY    20  15  81 W3        30.52S
ANKENY *       CLOUDY    21  14  73 CALM      30.53S
BOONE *        CLOUDY    19  10  68 W5        30.50R WCI  13
CHARITON *     CLOUDY    21  12  68 CALM      30.51F
DES MOINES     CLOUDY    22  12  65 W6        30.52F WCI  14
GRINNELL*      CLOUDY    20  13  74 CALM      30.51F
KNOXVILLE *    CLOUDY    21  12  68 SW5       30.51S WCI  15
MARSHALLTOWN   CLOUDY    19  14  81 W5        30.50F WCI  12
NEWTON *       CLOUDY    19  14  79 CALM      30.50F
PELLA *        CLOUDY    22  11  63 W3        30.53F
PERRY *          N/A     21  15  78 W3        30.52R
$$

IAZ004>006-015-016-023>025-035-036-100500-
   NORTH CENTRAL IOWA

CITY           SKY/WX    TMP DP  RH WIND       PRES   REMARKS
ALGONA *       CLOUDY    18  12  79 NW6       30.49R WCI   9
CLARION *      CLOUDY    19  12  73 W7        30.49S WCI  10
ESTHERVILLE    LGT SNOW  15  12  88 W5        30.48R FOG     WCI   8
FORT DODGE *   CLOUDY    19  10  68 W3        30.51R
MASON CITY     CLOUDY    17  13  84 W6        30.49F WCI   9
WEBSTER CITY * CLOUDY    19  14  79 SW5       30.48S WCI  13
IOWA FALLS *   CLOUDY    20  14  76 W5        30.50S WCI  14
$$

IAZ007>011-017>019-026>030-037>042-050>054-066-100500-
   NORTHEAST IOWA

CITY           SKY/WX    TMP DP  RH WIND       PRES   REMARKS
CEDAR RAPIDS   CLOUDY    17  14  88 SW3       30.51F
CHARLES CITY * FLURRIES  16  14  93 CALM      30.48F
CLINTON *      MOCLDY    17  13  84 W6        30.53S WCI   9
DECORAH *      LGT SNOW  16  12  86 VRB3      30.47R
DUBUQUE        CLOUDY    15  11  83 W3        30.49F
MONTICELLO *   CLOUDY    18  12  79 W3        30.51S
OELWEIN *      CLOUDY    18  14  86 W6        30.49S WCI   9
WATERLOO       CLOUDY    19  12  74 W6        30.50F WCI  11
$$

IAZ064-065-067-068-078-100500-
   EAST CENTRAL IOWA

CITY           SKY/WX    TMP DP  RH WIND       PRES   REMARKS
DAVENPORT      CLOUDY    19  13  77 W6        30.54R WCI  11
IOWA CITY      CLOUDY    19  13  77 CALM      30.55F
MUSCATINE *    CLOUDY    21  14  73 SW5       30.56S WCI  15
QUAD CITIES    PTCLDY    20  13  74 W3        30.54S
$$

IAZ062-063-075>077-085>089-095>099-100500-
   SOUTHEAST IOWA

CITY           SKY/WX    TMP DP  RH WIND       PRES   REMARKS
BURLINGTON     CLOUDY    20  15  81 CALM      30.55S
FAIRFIELD *    CLOUDY    21  12  68 CALM      30.53S
FORT MADISON * CLOUDY    21  12  68 CALM      30.55S
KEOKUK *       CLOUDY    21  16  79 CALM      30.55S
OSKALOOSA *    CLOUDY    20  14  78 CALM      30.52F
CENTERVILLE *  CLOUDY    23  14  68 CALM      30.53S
OTTUMWA        CLOUDY    21  12  68 SW3       30.52F
WASHINGTON *   CLOUDY    21  16  79 CALM      30.55S
$$

ABBREVIATIONS USED IN REMARKS
   TC - TEMPERATURES IN CELSIUS
  WCI - WIND CHILL INDEX
   HX - HEAT INDEX
  VSB - VISIBILITY
$$





USA.gov is the U.S. government's official web portal to all federal, state and local government web resources and services.